Regional Weather Roundup
Issued by NWS

Home | Current Version | Previous Version | Graphics & Text | Print | Product List | Glossary On
Versions: 1 2 3 4 5 6 7 8 9 10 11 12 13 14 15 16 17 18 19 20 21 22 23 24 25 26 27 28 29 30 31 32 33 34 35 36 37 38 39 40 41 42 43 44 45 46 47 48 49 50
000
ASUS43 KFSD 250910
RWRSD

WEATHER ROUNDUP FOR SOUTH DAKOTA
NATIONAL WEATHER SERVICE SIOUX FALLS SD
400 AM CDT TUE APR 25 2017

NOTE: "FAIR" INDICATES FEW OR NO CLOUDS BELOW 12,000 FEET WITH NO
SIGNIFICANT WEATHER AND/OR OBSTRUCTIONS TO VISIBILITY.


SDZ001>005-009-010-012>017-251000-
NORTHWEST AND NORTH CENTRAL SOUTH DAKOTA

CITY           SKY/WX    TMP DP  RH WIND       PRES   REMARKS
BUFFALO          N/A     31  28  89 NE18      29.62F WCI  19
FAITH            N/A     31  30  96 NE18      29.68S WCI  19
MOBRIDGE       CLOUDY    35  29  78 N14       29.68F WCI  26
$$

SDZ012>016-024>037-041>051-057-063-072>074-251000-
SOUTHWEST AND SOUTH CENTRAL SOUTH DAKOTA

CITY           SKY/WX    TMP DP  RH WIND       PRES   REMARKS
RAPID CTY ARPT LGT RAIN  36  33  89 NE7       29.64F
PIERRE         CLOUDY    35  31  85 N15       29.65F WCI  25
CUSTER         LGT SNOW  31  29  92 NE8       29.54F FOG     WCI  23
ELLSWORTH AFB  LGT RAIN  37  37 100 E7        29.64
PHILIP         CLOUDY    37  32  82 NE15      29.66S
PINE RIDGE     RAIN      40  40 100 E12       29.61S
SPEARFISH      LGT SNOW  34  34 100 E13       29.62S WCI  25
WINNER         CLOUDY    38  35  89 N13       29.63S
$$

SDZ004>011-016>023-039-040-251000-
NORTHEAST SOUTH DAKOTA

CITY           SKY/WX    TMP DP  RH WIND       PRES   REMARKS
ABERDEEN       CLOUDY    34  30  85 N15       29.68R WCI  24
WATERTOWN      CLOUDY    36  36 100 N16       29.60R FOG
BROOKINGS      CLOUDY    37  36  96 N16G22    29.57F
SISSETON         N/A     35  34  96 N22G29    29.62R WCI  23
$$

SDZ017-020-022-023-036>040-048>070-251000-
SOUTHEAST SOUTH DAKOTA

CITY           SKY/WX    TMP DP  RH WIND       PRES   REMARKS
SIOUX FALLS    CLOUDY    42  39  89 N12       29.57S
HURON          CLOUDY    36  35  96 N20       29.63F
CHAMBERLAIN    CLOUDY    40  37  87 N9        29.64R
MITCHELL       CLOUDY    39  36  89 N15       29.63S
YANKTON        CLOUDY    41  36  81 NW17      29.58F
$$

ABBREVIATIONS USED IN REMARKS
   TC - TEMPERATURE IN CELSIUS
  WCI - WIND CHILL INDEX
   HX - HEAT INDEX
  VSB - VISIBILITY





USA.gov is the U.S. government's official web portal to all federal, state and local government web resources and services.